Weather History for Monroe, LA

Change the Weather History Date:

Tuesday, September 24, 2013

  Actual Average Record
Temperature  
Mean Temperature 78 °F 74 °F  
Max Temperature 91 °F 87 °F 101 °F (1931)
Min Temperature 64 °F 61 °F 46 °F (1990)
Degree Days  
Heating Degree Days 0 0  
Month to date heating degree days 0 0  
Since 1 July heating degree days 0 0  
Cooling Degree Days 13 9  
Month to date cooling degree days 388 310  
Year to date cooling degree days 2233 2317  
Growing Degree Days 28 (Base 50)    
Moisture  
Dew Point 68 °F    
Average Humidity 65    
Maximum Humidity 93    
Minimum Humidity 37    
Precipitation  
Precipitation 0.12 in 0.12 in 3.57 in (1991)
Month to date precipitation 2.17 2.84  
Year to date precipitation 34.45 38.32  
Snow  
Snow 0.00 in - - ()
Month to date snowfall 0.0  
Since 1 July snowfall 0.0  
Since 1 September snowfall 0.0  
Snow Depth 0.00 in    
Sea Level Pressure  
Sea Level Pressure 29.84 in    
Wind  
Wind Speed 5 mph (NNW)    
Max Wind Speed 16 mph    
Max Gust Speed 21 mph    
Visibility 9 miles    
Events Rain , Thunderstorm    
T = Trace of Precipitation, MM = Missing Value Source: NWS Daily Summary

Daily Weather History Graph

Daily Weather History Graph

Search for Another Location

Airport:

Trip Planner

Search our weather history database for the weather conditions in past years. The results will help you decide how hot, cold, wet, or windy it might be!

Date:

Astronomy

Sep. 24, 2013 Rise Set
Actual Time 6:57 AM CDT 7:01 PM CDT
Civil Twilight 6:33 AM CDT 7:26 PM CDT
Nautical Twilight 6:04 AM CDT 7:54 PM CDT
Astronomical Twilight 5:35 AM CDT 8:23 PM CDT
Moon 10:36 PM CDT (9/24) 11:55 AM CDT (9/24)
Length of Visible Light 12h 53m
Length of Day
12h 03m
Waning Gibbous, 73% of the Moon is Illuminated
Sep 24
Waning Gibbous
Sep 26
Last Quarter
Oct 4
New
Oct 11
First Quarter
Oct 18
Full

Hourly Weather History & Observations

Time (CDT) Temp. Heat Index Dew Point Humidity Pressure Visibility Wind Dir Wind Speed Gust Speed Precip Events Conditions
12:53 AM 75.9 °F - 66.9 °F 74% 29.85 in 10.0 mi Calm Calm - N/A   Overcast
1:53 AM 77.0 °F - 69.1 °F 76% 29.85 in 10.0 mi Calm Calm - N/A   Mostly Cloudy
2:42 AM 73.4 °F - 69.8 °F 88% 29.85 in 10.0 mi Calm Calm - N/A   Mostly Cloudy
2:53 AM 75.0 °F - 69.1 °F 82% 29.84 in 10.0 mi Calm Calm - N/A   Mostly Cloudy
3:37 AM 73.4 °F - 69.8 °F 88% 29.85 in 10.0 mi ENE 3.5 mph - N/A   Overcast
3:49 AM 73.4 °F - 69.8 °F 88% 29.84 in 7.0 mi ENE 3.5 mph - 0.01 in Rain Light Rain
3:53 AM 73.9 °F - 70.0 °F 87% 29.84 in 5.0 mi Calm Calm - 0.01 in Rain Rain
4:17 AM 73.4 °F - 71.6 °F 94% 29.84 in 7.0 mi Calm Calm - 0.03 in Rain Light Rain
4:38 AM 73.4 °F - 71.6 °F 94% 29.84 in 7.0 mi Calm Calm - 0.04 in Rain , Thunderstorm Light Rain
4:47 AM 73.4 °F - 71.6 °F 94% 29.84 in 8.0 mi Calm Calm - 0.04 in Rain Light Rain
4:53 AM 73.9 °F - 71.1 °F 91% 29.84 in 10.0 mi Calm Calm - 0.04 in Rain Light Rain
5:53 AM 73.9 °F - 72.0 °F 93% 29.85 in 8.0 mi SSW 5.8 mph - 0.05 in Rain Light Rain
6:14 AM 73.4 °F - 71.6 °F 94% 29.85 in 9.0 mi SW 5.8 mph - 0.00 in Rain Light Rain
6:53 AM 73.0 °F - 71.1 °F 93% 29.85 in 10.0 mi WNW 6.9 mph - 0.01 in   Partly Cloudy
7:33 AM 73.4 °F - 71.6 °F 94% 29.86 in 9.0 mi NNW 6.9 mph - 0.01 in Rain Light Rain
7:53 AM 73.0 °F - 71.1 °F 93% 29.87 in 10.0 mi NW 8.1 mph - 0.01 in Rain Light Rain
8:14 AM 73.4 °F - 71.6 °F 94% 29.86 in 10.0 mi NNW 8.1 mph - 0.00 in   Mostly Cloudy
8:53 AM 75.0 °F - 72.0 °F 90% 29.86 in 10.0 mi North 4.6 mph - 0.00 in   Overcast
9:46 AM 75.2 °F - 71.6 °F 89% 29.86 in 10.0 mi NNW 5.8 mph - N/A   Overcast
9:53 AM 77.0 °F - 73.0 °F 88% 29.86 in 10.0 mi North 6.9 mph - N/A   Overcast
10:53 AM 81.0 °F 85.8 °F 73.0 °F 77% 29.86 in 10.0 mi NW 9.2 mph - N/A   Mostly Cloudy
11:53 AM 86.0 °F 91.5 °F 71.1 °F 61% 29.86 in 10.0 mi NNW 11.5 mph - N/A   Partly Cloudy
12:53 PM 88.0 °F 89.3 °F 64.0 °F 45% 29.85 in 10.0 mi NNE 11.5 mph 20.7 mph N/A   Partly Cloudy
1:53 PM 90.0 °F 91.3 °F 64.0 °F 42% 29.83 in 10.0 mi North 10.4 mph - N/A   Clear
2:53 PM 90.0 °F 90.3 °F 62.1 °F 39% 29.82 in 10.0 mi North 13.8 mph - N/A   Clear
3:53 PM 90.0 °F 90.0 °F 61.0 °F 38% 29.81 in 10.0 mi North 9.2 mph - N/A   Clear
4:53 PM 89.1 °F 88.2 °F 59.0 °F 36% 29.80 in 10.0 mi NW 9.2 mph - N/A   Clear
5:53 PM 88.0 °F 87.1 °F 59.0 °F 37% 29.80 in 10.0 mi NNW 6.9 mph - N/A   Clear
6:53 PM 82.9 °F 83.7 °F 62.1 °F 49% 29.80 in 10.0 mi Calm Calm - N/A   Clear
7:53 PM 73.0 °F - 66.0 °F 79% 29.81 in 10.0 mi Calm Calm - N/A   Clear
8:53 PM 71.1 °F - 64.9 °F 81% 29.82 in 10.0 mi Calm Calm - N/A   Clear
9:53 PM 69.1 °F - 64.9 °F 87% 29.82 in 10.0 mi Calm Calm - N/A   Clear
10:53 PM 66.9 °F - 64.0 °F 90% 29.82 in 10.0 mi Calm Calm - N/A   Clear
11:53 PM 64.9 °F - 63.0 °F 93% 29.81 in 10.0 mi Calm Calm - N/A   Clear